Notices

What's New in latest Release from April 7th, 2021:

- Updated Glossary, including Speed of Maximum Gust, and Total Hourly Precipitation

- Updated national and regional climate services offices contacts and prices information

- Addition of station inventory lists for 1981-2010, 1971-2000, and 1961-1990 Normals.

If you haven't already, please take our survey and provide feedback about our website: https://eccc.sondage-survey.ca/f/LanguageSelection.aspx?s=442ca660-fcf1-47c0-95a9-59707d6fd709

Hourly Data Report for October 04, 2019

QUALICUM BEACH AIRPORT
BRITISH COLUMBIA
Current Station Operator: ECCC - MSC

49°20'14.000" N
124°23'38.000" W
58.20 m
1026562
71766
VOQ

Download Data

Hourly Data (October 2019)
Hourly Data Report for October 4, 2019
TIME
LST
Temp Definition
°C
Dew Point Definition
°C
Rel Hum Definition
%
Precip. Amount Definition
mm

Wind Dir Definition
10's deg

Wind Spd Definition
km/h
Visibility Definition
km
Stn Press Definition
kPa
Hmdx Definition


Wind Chill Definition


Weather Definition


00:00 8.2 6.7 90 0.0 14 1   100.82     LegendNANA
01:00 7.7 6.5 92 0.0   0   100.84     LegendNANA
02:00 8.1 6.8 92 0.0 27 2   100.85     LegendNANA
03:00 8.4 6.6 89 0.0 27 1   100.89     LegendNANA
04:00 7.8 6.2 90 0.0 27 2   100.91     LegendNANA
05:00 7.6 6.3 92 0.0 26 1   100.94     LegendNANA
06:00 8.2 6.8 91 0.0 30 2   101.00     LegendNANA
07:00 8.5 7.5 93 0.3 0 1   101.05     LegendNANA
08:00 9.9 9.0 94 0.0 12 4   101.09     LegendNANA
09:00 10.2 9.2 94 0.0 17 2   101.15     LegendNANA
10:00 10.9 9.4 90 0.0 15 3   101.22     LegendNANA
11:00 11.4 8.3 82 0.0 9 8   101.27     LegendNANA
12:00 11.5 9.1 85 0.0 10 10   101.30     LegendNANA
13:00 12.3 9.1 81 0.0 9 6   101.35     LegendNANA
14:00 12.3 9.3 82 0.0 9 6   101.38     LegendNANA
15:00 12.7 9.2 79 0.0 9 7   101.39     LegendNANA
16:00 12.1 9.6 85 0.0 9 8   101.40     LegendNANA
17:00 11.3 9.5 89 0.0 9 8   101.43     LegendNANA
18:00 11.0 9.8 92 0.1 7 3   101.47     LegendNANA
19:00 10.7 9.8 95 0.0 12 3   101.51     LegendNANA
20:00 9.8 9.1 96 0.0 0 1   101.56     LegendNANA
21:00 8.8 8.2 96 0.0 0 1   101.62     LegendNANA
22:00 8.1 7.7 97 0.0 27 2   101.68     LegendNANA
23:00 8.2 7.8 97 0.0 29 2   101.71     LegendNANA

Notes on Data Quality.

Legend

  • E = Estimated
  • M = Missing
  • NA = Not Available*
  • [empty] = Indicates an unobserved value
Date modified: